User: anonymous   Login
Location: Unspecified
(42.1900°N, 71.3291°W)
Time: 16:29:03
(UTC-04:00)
Language:

Resurs 1-4 Rocket - Orbit

View from above orbital plane
View from above orbital plane
View from above satellite
View from above satellite

Ground track
Ground track

The orbit data is extracted from the following two-line orbital elements,

1 25400U 98043G   16205.90871444 -.00000006 +00000-0 +15289-4 0  9992
2 25400 098.4408 159.4686 0009955 169.7712 190.3672 14.25386109938081
Epoch (UTC): 23 July 2016 21:48:32
Eccentricity: 0.0009955
inclination: 98.4408°
perigee height: 800 km
apogee height: 814 km
right ascension of ascending node: 159.4686°
argument of perigee: 169.7712°
revolutions per day: 14.25386109
mean anomaly at epoch: 190.3672°
orbit number at epoch: 93808

The dashed part of the orbit path shows where the satellite is in the earth's shadow,  

DLR